User: anonymous   Login
Location: Valdosta
(30.8330°N, 83.2790°W)
Time: 02:18:02
(UTC-04:00)
Language:

Uribyol 2 - Orbit

View from above orbital plane
View from above orbital plane
View from above satellite
View from above satellite

Ground track
Ground track

The orbit data is extracted from the following two-line orbital elements,

1 22828U 93061F   17264.45730172 +.00000016 +00000-0 +23789-4 0  9990
2 22828 098.8085 230.0528 0010212 015.2049 344.9438 14.30648978219477
Epoch (UTC): 21 September 2017 10:58:30
Eccentricity: 0.0010212
inclination: 98.8085°
perigee height: 782 km
apogee height: 797 km
right ascension of ascending node: 230.0528°
argument of perigee: 15.2049°
revolutions per day: 14.30648978
mean anomaly at epoch: 344.9438°
orbit number at epoch: 21947

The dashed part of the orbit path shows where the satellite is in the earth's shadow,  

DLR